Location: Newark
(45.9456°N, 15.4064°E)
Time: 03:49:43
(UTC+00:00)

SR - Pass Details

Date: 26 January 2020
Orbit: 575 x 881 km, 66.7° (Epoch: 18 February)

Event Time Altitude Azimuth Distance (km) Brightness Sun altitude
Rises 23:13:43 0° 270° (W) 3,465 - -62.7°
Reaches altitude 10° 23:17:08 10° 289° (WNW) 2,541 - -62.7°
Maximum altitude 23:20:58 17° 330° (NNW) 2,057 - -62.6°
Drops below altitude 10° 23:24:48 10° 10° (N) 2,523 - -62.6°
Sets 23:28:11 0° 30° (NNE) 3,431 - -62.5°
